• en France
  • Liste des pays
  • À 7 jours
  • Température de l'eau
  • Carte satellitaire
  • Carte météo
  • Widgets météo
  • user-avatar
    Se connecter

    Météo par heure à Neiva

    Ce jour, 19 Août, Dimanche

    Heure Température Précipitation Vent Pression Humidité
    00:00 +25°C° 0 mm 2 m/s 722 mmHg 65%
    01:00 +25°C° 0 mm 2 m/s 722 mmHg 65%
    02:00 +25°C° 0 mm 2 m/s 722 mmHg 65%
    03:00 +25°C° 0 mm 2 m/s 722 mmHg 65%
    04:00 +25°C° 0 mm 2 m/s 722 mmHg 64%
    05:00 +25°C° 0 mm 2 m/s 722 mmHg 63%
    06:00 +26°C° 0 mm 2 m/s 722 mmHg 62%
    07:00 +26°C° 0 mm 2 m/s 723 mmHg 61%
    08:00 +29°C° 0 mm 2 m/s 723 mmHg 54%
    09:00 +31°C° 0 mm 2 m/s 723 mmHg 48%
    10:00 +34°C° 0 mm 2 m/s 723 mmHg 41%
    11:00 +35°C° 0 mm 2 m/s 722 mmHg 38%
    12:00 +37°C° 0 mm 2 m/s 722 mmHg 36%
    13:00 +38°C° 0 mm 3 m/s 721 mmHg 33%
    14:00 +37°C° 0 mm 3 m/s 720 mmHg 35%
    15:00 +37°C° 0 mm 3 m/s 720 mmHg 36%
    16:00 +36°C° 0 mm 3 m/s 719 mmHg 37%
    17:00 +34°C° 0 mm 3 m/s 720 mmHg 45%
    18:00 +30°C° 0 mm 2 m/s 720 mmHg 53%
    19:00 +28°C° 0 mm 2 m/s 721 mmHg 61%
    20:00 +27°C° 0 mm 2 m/s 721 mmHg 61%
    21:00 +27°C° 0 mm 2 m/s 722 mmHg 62%
    22:00 +26°C° 0 mm 2 m/s 723 mmHg 63%
    23:00 +26°C° 0 mm 2 m/s 722 mmHg 63%

    Demain, 20 Août, Lundi

    Heure Température Précipitation Vent Pression Humidité
    00:00 +26°C° 0 mm 2 m/s 722 mmHg 63%
    01:00 +25°C° 0 mm 2 m/s 722 mmHg 63%
    02:00 +25°C° 0 mm 2 m/s 722 mmHg 63%
    03:00 +25°C° 0 mm 2 m/s 722 mmHg 63%
    04:00 +25°C° 0 mm 2 m/s 722 mmHg 64%
    05:00 +26°C° 0,1 mm 2 m/s 722 mmHg 63%
    06:00 +26°C° 0,1 mm 2 m/s 722 mmHg 62%
    07:00 +26°C° 0,1 mm 2 m/s 723 mmHg 61%
    08:00 +28°C° 0,1 mm 2 m/s 723 mmHg 57%
    09:00 +30°C° 0,1 mm 2 m/s 723 mmHg 53%
    10:00 +31°C° 0,1 mm 2 m/s 723 mmHg 50%
    11:00 +34°C° 0,1 mm 2 m/s 723 mmHg 47%
    12:00 +35°C° 0,1 mm 2 m/s 722 mmHg 44%
    13:00 +36°C° 0,1 mm 3 m/s 721 mmHg 41%
    14:00 +36°C° 0,2 mm 3 m/s 721 mmHg 43%
    15:00 +35°C° 0,2 mm 3 m/s 720 mmHg 45%
    16:00 +35°C° 0,2 mm 3 m/s 719 mmHg 47%
    17:00 +31°C° 0,2 mm 3 m/s 720 mmHg 54%
    18:00 +29°C° 0,2 mm 2 m/s 721 mmHg 61%
    19:00 +27°C° 0,2 mm 2 m/s 721 mmHg 68%
    20:00 +27°C° 0,1 mm 2 m/s 722 mmHg 68%
    21:00 +26°C° 0,1 mm 2 m/s 723 mmHg 69%
    22:00 +26°C° 0,1 mm 2 m/s 723 mmHg 69%
    23:00 +26°C° 0,1 mm 2 m/s 723 mmHg 69%

    Après-demain, 21 Août, Mardi

    Heure Température Précipitation Vent Pression Humidité
    00:00 +26°C° 0,1 mm 2 m/s 723 mmHg 69%
    01:00 +25°C° 0,1 mm 2 m/s 723 mmHg 70%
    02:00 +25°C° 0,1 mm 2 m/s 723 mmHg 70%
    03:00 +25°C° 0,1 mm 2 m/s 722 mmHg 70%
    04:00 +25°C° 0,1 mm 2 m/s 722 mmHg 70%
    05:00 +25°C° 0,1 mm 2 m/s 722 mmHg 68%
    06:00 +26°C° 0,1 mm 2 m/s 722 mmHg 67%
    07:00 +26°C° 0,1 mm 2 m/s 723 mmHg 65%
    08:00 +28°C° 0,1 mm 2 m/s 723 mmHg 59%
    09:00 +30°C° 0,1 mm 2 m/s 723 mmHg 53%
    10:00 +32°C° 0,1 mm 2 m/s 724 mmHg 47%
    11:00 +34°C° 0,2 mm 2 m/s 723 mmHg 46%
    12:00 +35°C° 0,2 mm 3 m/s 722 mmHg 44%
    13:00 +36°C° 0,2 mm 3 m/s 721 mmHg 43%
    14:00 +35°C° 0,2 mm 3 m/s 721 mmHg 44%
    15:00 +35°C° 0,2 mm 3 m/s 720 mmHg 46%
    16:00 +34°C° 0,2 mm 3 m/s 719 mmHg 47%
    17:00 +31°C° 0,2 mm 3 m/s 720 mmHg 54%
    18:00 +29°C° 0,2 mm 2 m/s 720 mmHg 61%
    19:00 +27°C° 0,2 mm 2 m/s 721 mmHg 68%
    20:00 +27°C° 0,2 mm 2 m/s 722 mmHg 69%
    21:00 +26°C° 0,2 mm 2 m/s 722 mmHg 70%
    22:00 +26°C° 0,2 mm 2 m/s 723 mmHg 70%
    23:00 +26°C° 0,3 mm 2 m/s 723 mmHg 70%

    22 Août, Mercredi

    Heure Température Précipitation Vent Pression Humidité
    00:00 +26°C° 0,3 mm 2 m/s 723 mmHg 70%
    01:00 +25°C° 0,3 mm 2 m/s 722 mmHg 70%
    02:00 +25°C° 0,3 mm 2 m/s 722 mmHg 71%
    03:00 +25°C° 0,3 mm 2 m/s 722 mmHg 72%
    04:00 +25°C° 0,3 mm 1 m/s 722 mmHg 73%
    05:00 +25°C° 0,2 mm 2 m/s 722 mmHg 71%
    06:00 +26°C° 0,2 mm 2 m/s 723 mmHg 70%
    07:00 +26°C° 0,2 mm 2 m/s 723 mmHg 69%
    08:00 +28°C° 0,1 mm 2 m/s 723 mmHg 61%
    09:00 +31°C° 0,1 mm 2 m/s 723 mmHg 54%
    10:00 +34°C° 0,1 mm 2 m/s 724 mmHg 46%
    11:00 +35°C° 0 mm 2 m/s 723 mmHg 42%
    12:00 +36°C° 0 mm 3 m/s 722 mmHg 38%
    13:00 +37°C° 0 mm 3 m/s 721 mmHg 34%
    14:00 +37°C° 0 mm 3 m/s 720 mmHg 34%
    15:00 +37°C° 0 mm 3 m/s 720 mmHg 34%
    16:00 +36°C° 0 mm 3 m/s 719 mmHg 34%
    17:00 +34°C° 0 mm 3 m/s 720 mmHg 41%
    18:00 +30°C° 0 mm 2 m/s 720 mmHg 48%
    19:00 +28°C° 0 mm 2 m/s 721 mmHg 56%
    20:00 +27°C° 0 mm 2 m/s 722 mmHg 56%
    21:00 +27°C° 0 mm 2 m/s 722 mmHg 56%
    22:00 +26°C° 0 mm 2 m/s 723 mmHg 56%
    23:00 +26°C° 0 mm 2 m/s 723 mmHg 57%

    23 Août, Jeudi

    Heure Température Précipitation Vent Pression Humidité
    00:00 +26°C° 0 mm 2 m/s 722 mmHg 57%
    01:00 +26°C° 0 mm 2 m/s 722 mmHg 58%
    02:00 +25°C° 0,1 mm 2 m/s 722 mmHg 59%
    03:00 +25°C° 0,1 mm 2 m/s 722 mmHg 61%
    04:00 +25°C° 0,1 mm 1 m/s 721 mmHg 62%
    05:00 +25°C° 0,1 mm 1 m/s 722 mmHg 61%
    06:00 +26°C° 0,1 mm 1 m/s 722 mmHg 60%
    07:00 +26°C° 0,1 mm 1 m/s 723 mmHg 60%
    08:00 +29°C° 0,1 mm 1 m/s 723 mmHg 54%
    09:00 +31°C° 0,1 mm 1 m/s 723 mmHg 48%
    10:00 +34°C° 0,1 mm 2 m/s 723 mmHg 42%
    11:00 +35°C° 0 mm 2 m/s 722 mmHg 41%
    12:00 +36°C° 0 mm 2 m/s 722 mmHg 39%
    13:00 +37°C° 0 mm 2 m/s 721 mmHg 37%
    14:00 +36°C° 0,1 mm 2 m/s 720 mmHg 39%
    15:00 +36°C° 0,1 mm 3 m/s 719 mmHg 40%
    16:00 +35°C° 0,1 mm 3 m/s 719 mmHg 42%
    17:00 +32°C° 0,1 mm 2 m/s 719 mmHg 49%
    18:00 +30°C° 0,1 mm 2 m/s 720 mmHg 56%
    19:00 +28°C° 0,1 mm 2 m/s 720 mmHg 62%
    20:00 +27°C° 0 mm 2 m/s 721 mmHg 63%
    21:00 +27°C° 0 mm 2 m/s 722 mmHg 64%
    22:00 +26°C° 0 mm 2 m/s 722 mmHg 64%
    23:00 +26°C° 0 mm 2 m/s 722 mmHg 64%

    24 Août, Vendredi

    Heure Température Précipitation Vent Pression Humidité
    00:00 +26°C° 0 mm 2 m/s 722 mmHg 64%
    01:00 +26°C° 0 mm 1 m/s 721 mmHg 63%
    02:00 +25°C° 0 mm 1 m/s 721 mmHg 63%
    03:00 +25°C° 0 mm 1 m/s 721 mmHg 63%
    04:00 +25°C° 0 mm 1 m/s 721 mmHg 62%
    05:00 +25°C° 0,1 mm 1 m/s 721 mmHg 61%
    06:00 +26°C° 0,1 mm 1 m/s 721 mmHg 60%
    07:00 +26°C° 0,1 mm 1 m/s 722 mmHg 58%
    08:00 +28°C° 0,1 mm 1 m/s 722 mmHg 54%
    09:00 +31°C° 0,1 mm 1 m/s 722 mmHg 49%
    10:00 +33°C° 0,1 mm 1 m/s 722 mmHg 45%
    11:00 +34°C° 0,1 mm 1 m/s 722 mmHg 43%
    12:00 +35°C° 0,1 mm 2 m/s 721 mmHg 42%
    13:00 +36°C° 0,1 mm 2 m/s 720 mmHg 41%
    14:00 +36°C° 0,2 mm 2 m/s 720 mmHg 43%
    15:00 +35°C° 0,2 mm 2 m/s 719 mmHg 45%
    16:00 +35°C° 0,2 mm 2 m/s 718 mmHg 47%
    17:00 +32°C° 0,2 mm 2 m/s 719 mmHg 54%
    18:00 +30°C° 0,2 mm 2 m/s 720 mmHg 61%
    19:00 +28°C° 0,2 mm 1 m/s 720 mmHg 68%
    20:00 +28°C° 0,1 mm 1 m/s 721 mmHg 68%
    21:00 +27°C° 0,1 mm 1 m/s 721 mmHg 69%
    22:00 +27°C° 0,1 mm 1 m/s 722 mmHg 69%
    23:00 +26°C° 0 mm 1 m/s 721 mmHg 69%
    Voir plus